Wind_Speed
13 15 16 15 15 14 14 14 15 13 11 11 12 12 6 3 4 14 8 9 9 12 9 7 2 2 2 1 1 2 3 2 2 2 0 3 4 2 5 3 5 4 2 2 4
14 14 16 16 15 14 14 14 15 13 12 10 11 11 7 4 1 10 14 11 8 11 5 6 3 4 1 1 2 4 3 5 2 1 1 5 4 5 5 6 4 3 3 3 3
14 14 16 16 16 15 14 15 16 13 10 9 10 8 7 4 1 4 18 11 9 8 2 1 2 2 2 2 1 3 4 4 2 3 1 1 2 1 3 6 7 4 7 5 6
13 14 16 18 17 15 15 15 16 12 9 7 9 7 5 2 2 6 16 11 9 7 4 1 2 2 3 2 0 2 2 1 3 2 2 2 4 5 5 7 5 9 7 6 5
14 15 17 18 18 16 15 16 15 11 9 7 7 9 1 4 1 11 11 11 7 7 8 3 4 1 4 3 2 1 1 3 1 4 4 2 6 5 8 10 9 8 6 6 8
15 15 17 18 18 17 16 16 15 11 7 6 6 7 2 2 2 11 9 8 12 10 9 7 3 2 4 2 3 1 3 5 4 2 1 4 5 2 5 3 6 4 7 9 9
16 16 17 18 19 19 17 17 14 7 5 5 5 4 4 4 1 10 7 6 8 7 3 5 4 1 1 2 2 1 5 3 3 4 4 7 8 5 5 5 8 9 9 7 8
17 17 17 18 19 20 20 17 13 5 5 4 4 1 1 1 3 11 9 1 4 4 3 4 5 3 3 1 4 5 5 5 3 8 4 6 10 9 6 6 13 12 9 9 11
17 18 18 19 20 21 20 18 9 5 5 1 1 1 1 0 2 8 7 2 3 2 2 3 2 4 6 3 4 7 1 2 8 4 4 1 10 13 5 8 9 9 8 9 6
17 19 19 19 20 22 19 11 1 2 2 1 1 4 1 2 4 7 4 4 2 2 3 5 5 4 5 4 2 2 3 3 5 5 3 7 19 17 15 8 10 8 8 6 6
16 17 18 19 20 17 18 2 5 2 7 1 0 2 1 6 1 5 6 4 1 5 3 4 6 3 3 1 3 3 2 4 5 2 8 4 10 19 17 6 6 5 6 5 5
15 17 18 19 19 13 8 4 2 1 4 1 1 0 1 2 2 3 8 1 2 2 1 5 2 4 4 3 2 4 3 4 6 2 3 8 17 13 7 4 1 3 4 7 5
14 15 17 18 14 6 8 5 2 1 2 1 1 1 1 3 1 4 4 1 3 3 1 5 4 4 3 2 1 3 3 2 4 9 3 7 6 5 4 3 6 7 5 4 4
15 13 14 18 2 7 3 5 1 1 3 2 1 1 0 1 1 1 1 2 3 4 4 4 2 3 2 1 2 3 4 1 4 5 2 4 4 5 4 5 2 4 6 6 7
18 13 9 9 9 3 5 4 2 1 3 2 1 0 1 2 1 1 0 2 3 4 4 2 4 2 2 1 2 5 3 4 2 3 3 1 3 7 3 4 5 2 2 7 7
20 14 9 1 5 5 7 6 1 4 5 1 0 2 2 1 1 1 1 4 2 3 4 3 1 1 1 1 2 5 3 5 3 2 3 4 3 6 4 4 1 1 7 8 8
18 15 10 4 3 8 9 1 3 3 2 3 2 2 1 1 1 1 1 3 3 4 2 1 1 0 2 1 1 6 5 3 6 4 5 2 1 11 7 6 5 3 8 9 8
14 18 11 6 4 2 6 4 4 2 4 1 1 2 3 1 1 1 1 2 1 3 3 4 4 2 1 2 2 4 4 5 4 2 5 4 6 6 6 6 5 6 9 6 9
14 16 6 9 9 5 4 2 4 3 2 4 2 2 3 1 2 2 4 4 4 4 5 4 2 2 4 2 3 3 3 4 6 1 3 4 7 10 8 7 2 7 13 11 12
9 6 5 12 10 5 3 5 5 3 1 1 3 2 4 3 4 5 5 3 5 2 3 4 3 1 3 2 3 3 4 4 3 1 5 6 6 9 5 8 6 11 13 11 11
5 2 7 15 9 3 4 7 5 4 4 2 1 1 4 4 5 4 5 1 4 5 3 3 3 1 3 6 7 1 1 4 4 4 5 3 7 8 7 5 4 8 10 9 11
4 3 10 17 2 2 4 5 5 5 1 3 1 4 5 3 4 3 7 2 6 6 6 2 4 3 7 1 2 3 5 5 4 5 3 3 9 5 6 5 2 8 9 8 11
2 2 4 3 5 3 2 2 3 5 5 6 7 6 2 3 2 3 3 3 6 4 6 6 0 3 5 3 4 5 5 4 5 3 6 5 7 1 1 7 4 7 9 10 12
2 3 1 2 2 5 6 4 5 3 5 4 3 3 2 2 1 3 4 1 2 3 6 4 3 6 6 4 4 4 6 8 6 4 4 10 13 25 17 10 14 14 7 9 11
4 4 5 6 7 3 8 12 8 7 4 6 3 7 6 3 2 4 2 2 3 6 3 4 4 3 4 8 4 6 7 12 12 9 7 9 10 20 11 11 10 5 6 8 12
3 3 1 4 10 14 12 12 12 6 10 6 6 13 11 8 7 6 6 4 5 2 5 3 2 1 5 2 4 7 14 16 17 14 15 21 26 27 23 7 3 6 6 9 10
8 12 2 9 8 11 16 14 13 11 7 6 16 7 11 19 1 2 1 4 5 7 6 6 4 3 6 4 7 7 7 15 6 4 11 8 15 1 5 4 5 4 5 6 8
Wind_Direction
352 350 353 356 348 347 351 348 347 343 338 339 349 351 352 9 34 43 40 333 319 345 339 338 142 166 164 236 229 93 73 198 252 293 221 350 12 319 314 296 346 324 78 112 1
347 349 352 355 347 348 347 346 343 342 335 336 348 352 355 351 29 40 358 348 345 344 336 40 78 141 52 156 7 96 130 212 209 156 303 339 24 343 357 326 299 323 22 344 327
344 350 354 350 352 346 343 345 343 341 339 340 347 350 349 345 47 347 348 350 358 354 291 314 291 204 118 115 111 157 178 186 197 154 141 275 266 266 287 286 229 245 282 282 224
348 350 350 349 349 345 341 343 344 342 340 347 347 351 346 25 180 338 343 357 7 13 138 41 12 64 104 140 29 165 73 75 153 161 145 235 302 305 218 236 259 274 271 282 275
347 348 345 346 346 343 341 341 343 338 332 342 345 346 78 48 298 342 349 10 18 54 55 43 61 3 134 128 39 141 286 315 39 295 243 271 249 232 257 275 289 297 310 263 273
340 344 345 343 343 341 337 337 339 335 333 339 345 348 68 65 304 349 353 28 37 45 45 44 69 309 105 115 147 206 295 283 291 256 336 283 259 83 261 306 344 307 292 294 276
336 340 342 341 342 339 335 334 332 332 339 350 350 7 54 178 293 4 10 36 35 40 52 48 8 101 85 78 6 325 359 9 3 350 342 2 322 211 237 320 319 313 306 285 253
333 335 339 340 342 338 333 329 320 286 329 324 349 60 187 237 315 359 19 3 33 55 53 29 14 83 49 131 33 32 50 14 347 19 3 64 281 270 281 342 303 298 303 308 307
330 332 334 342 340 338 332 327 311 277 310 275 94 78 239 267 325 350 3 8 356 30 32 360 42 78 26 62 26 14 297 326 320 72 356 47 277 269 272 293 273 274 279 295 257
329 330 333 337 340 341 337 333 12 69 66 88 59 55 321 254 301 334 357 344 42 339 40 46 47 66 31 56 208 312 338 306 259 302 350 264 265 283 293 267 268 278 288 291 220
323 321 327 338 342 347 345 9 20 353 45 88 280 267 338 318 280 7 350 337 65 48 86 15 67 98 178 44 125 143 219 257 249 271 349 309 287 288 294 289 260 279 286 254 317
314 320 329 335 339 0 360 65 101 285 311 226 239 246 56 354 351 332 4 123 96 102 70 34 137 189 189 226 185 217 228 263 275 260 320 293 295 285 287 276 339 163 71 58 29
306 314 327 336 340 10 58 67 49 333 251 218 210 277 272 10 120 314 16 332 102 90 313 155 173 162 183 116 339 246 193 171 232 321 257 306 294 323 300 74 74 75 100 57 21
288 299 321 336 357 349 51 10 354 0 57 200 176 328 142 89 286 270 51 106 41 151 152 113 167 180 151 173 153 323 152 84 297 358 281 41 275 303 285 342 111 85 44 3 318
277 276 299 351 325 0 338 338 318 127 359 83 201 184 155 139 74 328 18 109 125 143 107 170 165 171 170 190 176 241 352 281 196 209 21 296 63 271 310 271 222 189 254 278 266
263 253 254 215 341 320 324 309 203 39 259 208 292 199 137 77 20 295 197 51 129 95 57 98 339 83 101 342 240 315 30 45 66 69 16 268 101 275 221 210 198 251 316 306 290
255 235 228 191 172 315 327 22 23 164 6 289 207 193 150 148 112 44 345 40 137 95 217 44 63 316 101 104 354 33 44 348 358 9 221 342 333 251 257 233 173 242 277 281 298
259 219 210 197 191 199 10 24 183 200 233 341 31 66 184 165 237 184 147 145 103 86 105 145 317 183 82 67 156 46 131 141 236 282 283 306 228 249 222 156 159 224 265 295 308
218 190 176 181 168 176 108 199 203 228 101 154 37 97 287 280 184 166 216 201 162 150 156 141 216 44 61 59 97 255 50 160 99 38 24 268 286 290 221 202 273 311 353 314 315
192 161 202 166 169 143 96 224 205 150 179 141 203 120 218 215 177 186 192 205 163 153 154 177 36 178 112 82 13 130 155 71 18 9 302 286 287 244 257 244 328 339 321 301 309
186 221 175 159 153 57 213 206 203 157 167 180 251 252 249 222 200 216 202 233 166 151 120 132 109 41 72 204 179 23 37 50 117 146 177 293 266 225 230 192 262 300 296 298 317
190 231 172 155 135 173 197 191 162 148 161 111 33 223 211 196 216 245 217 235 157 150 144 146 140 198 214 299 190 198 168 148 124 241 217 160 268 263 214 172 207 300 291 304 333
213 112 169 147 196 196 213 168 184 138 176 169 191 206 136 235 253 192 196 356 143 133 158 185 305 1 330 357 352 225 193 136 114 93 203 141 263 305 278 306 305 303 326 341 324
143 175 154 225 307 170 147 194 171 222 152 144 156 112 142 247 148 259 176 132 124 110 127 123 122 184 204 202 129 198 192 174 133 137 191 228 268 281 289 298 320 328 329 319 336
220 212 189 184 215 187 182 172 151 165 196 137 209 229 166 206 277 229 139 108 28 165 100 121 198 189 254 245 232 233 211 188 202 192 185 268 223 264 273 290 284 272 322 319 334
278 170 229 152 154 184 198 191 160 168 160 198 222 194 186 187 201 190 139 199 195 172 155 137 247 141 287 286 204 254 228 216 224 228 255 262 278 274 277 279 284 286 303 333 328
233 262 217 181 164 193 213 202 190 153 221 178 198 135 192 225 144 328 156 139 167 154 162 154 140 95 269 332 295 291 228 188 191 213 210 200 236 9 279 253 244 254 267 306 318
Height
823 821 816 812 811 809 805 804 801 798 797 795 792 790 788 787 787 784 784 787 784 781 779 777 778 778 779 780 779 780 801 804 790 788 789 789 789 782 782 779 778 773 774 775 774
823 820 816 812 811 807 804 803 800 797 796 794 792 790 788 787 786 786 788 785 783 781 778 777 779 779 783 781 782 790 804 793 788 788 788 789 790 790 788 787 783 779 776 775 775
823 819 815 813 808 805 804 801 799 797 795 793 791 789 789 787 788 789 787 784 781 779 777 778 779 779 780 781 784 787 796 787 787 787 788 789 790 789 789 787 781 778 776 774 774
820 817 814 812 808 805 802 800 797 796 794 792 791 789 788 788 790 788 786 783 781 778 778 778 779 780 784 786 782 787 785 785 786 787 789 791 789 791 789 782 775 775 775 773 771
819 816 814 810 807 804 801 799 796 794 793 791 790 789 788 791 792 789 786 783 781 779 779 780 782 785 788 787 785 788 787 787 787 786 786 787 789 789 784 778 776 773 772 771 769
818 814 812 809 806 803 800 797 795 793 792 791 790 789 788 793 790 788 785 784 782 781 782 782 785 785 787 788 790 791 791 792 789 786 786 786 785 785 776 774 772 772 772 770 769
817 813 810 808 805 802 798 795 793 792 791 790 789 789 789 792 789 788 785 785 784 784 784 785 785 786 787 790 792 791 793 790 789 788 787 786 781 781 774 773 772 771 769 767 766
816 812 809 807 803 800 797 793 791 791 790 790 789 789 792 790 790 788 785 785 785 785 785 785 785 786 789 791 793 797 799 804 792 796 790 793 798 775 773 773 772 768 766 763 759
815 812 808 803 801 798 794 791 789 789 789 789 790 790 792 791 790 789 787 786 786 785 785 785 786 793 798 800 806 816 806 809 807 800 799 795 796 770 773 776 775 770 766 763 758
813 811 808 804 800 796 792 789 788 788 789 789 790 794 793 791 790 789 788 787 787 786 787 788 798 807 816 813 814 806 816 817 818 806 805 807 794 777 770 772 769 767 764 761 758
813 812 808 802 798 795 790 789 792 792 790 792 793 792 792 791 790 789 788 787 787 789 795 796 808 809 811 809 808 811 817 823 818 805 808 801 803 782 766 766 763 761 761 759 759
811 809 806 803 799 795 793 796 801 803 797 792 792 793 792 792 791 790 788 789 787 796 793 803 805 807 808 809 808 811 814 815 808 802 809 803 793 779 769 759 756 757 760 765 764
808 807 805 801 798 798 798 800 800 801 800 792 792 792 793 793 794 793 791 791 790 795 801 803 802 804 806 807 810 811 810 812 816 812 804 805 786 777 763 756 760 764 765 765 765
806 805 804 802 803 800 800 800 800 800 806 790 793 792 792 792 793 792 792 793 793 800 805 803 805 805 805 806 813 806 808 812 816 820 829 804 821 782 767 763 762 764 767 767 765
803 803 802 802 803 802 803 800 800 801 804 792 792 792 791 793 795 792 793 791 796 798 801 802 809 806 805 804 810 808 810 815 814 823 824 807 835 786 774 761 763 765 767 768 765
799 799 800 801 802 803 800 800 800 805 796 794 792 791 791 791 792 792 793 793 796 798 805 810 811 809 807 809 810 810 812 818 817 824 866 813 811 789 774 759 758 765 767 763 761
796 796 797 796 800 802 800 799 805 802 794 794 793 791 791 793 792 794 796 799 803 809 802 808 810 811 810 809 811 816 829 874 855 874 853 806 808 781 764 759 758 763 766 762 757
792 792 792 794 796 799 800 806 795 803 800 798 796 795 794 796 794 793 798 801 804 809 829 818 816 811 810 813 815 820 839 870 859 876 856 817 817 772 757 757 757 761 762 756 753
788 789 790 792 796 799 806 806 793 798 796 800 802 806 809 801 798 795 797 802 800 804 812 818 798 815 814 815 821 827 851 834 890 901 884 829 798 766 753 758 756 761 754 756 751
789 789 790 791 795 797 810 792 798 795 797 797 795 809 811 811 801 800 801 796 802 803 807 810 817 814 819 820 823 824 826 848 880 871 880 838 818 776 753 753 759 760 759 755 750
789 790 789 790 795 800 795 792 794 789 793 796 797 796 803 810 804 813 801 797 798 804 804 810 814 818 820 824 823 843 852 855 856 859 887 884 808 770 753 751 767 763 758 754 749
786 785 789 788 797 798 792 789 782 791 796 795 798 797 800 805 814 808 791 790 796 800 808 809 820 828 813 813 813 816 823 838 864 858 859 865 805 752 750 754 756 760 756 750 747
779 786 788 787 781 792 791 784 784 790 793 796 798 798 800 804 804 808 793 798 798 801 808 811 829 837 813 819 819 814 814 820 860 870 852 870 799 748 750 752 755 759 752 749 746
779 780 787 787 781 774 782 784 784 784 786 789 795 800 800 806 804 808 800 800 800 801 800 803 825 816 795 781 805 810 808 813 835 872 863 818 779 740 742 764 754 753 754 753 746
768 760 764 774 776 771 769 771 776 788 785 786 800 792 790 802 809 808 802 805 806 801 805 808 829 836 825 817 812 805 802 806 816 822 815 766 802 759 767 762 758 762 756 752 745
763 755 763 762 761 768 762 763 767 777 778 785 786 781 793 792 783 795 804 805 800 809 808 812 826 820 820 812 811 807 793 796 795 796 806 781 773 742 743 749 760 760 762 748 746
756 752 746 746 756 756 742 747 752 762 770 766 771 780 788 780 789 791 791 793 796 805 812 816 828 844 812 814 807 791 768 778 796 802 785 804 757 758 760 760 766 754 754 748 745